Welcome to the New NWS' Forecast!
Most changes are behind the scenes, but click here for differences you might notice.

Regional Weather Roundup (RWR)

Issued by National Weather Service (NWS)

                            
000
ASUS44 KFWD 200015
RWRTX 
NORTH TEXAS HOURLY WEATHER ROUNDUP
NATIONAL WEATHER SERVICE FORT WORTH TX
600 PM CST MON NOV 19 2018

NOTE: "FAIR" INDICATES FEW OR NO CLOUDS BELOW 12,000 FEET WITH NO
SIGNIFICANT WEATHER AND/OR OBSTRUCTIONS TO VISIBILITY.

TXZ118-119-200100-
DALLAS/FORT WORTH METROPLEX
  
CITY           SKY/WX    TMP DP  RH WIND       PRES   REMARKS
DFW AIRPORT    FAIR      48  34  58 NE3       30.18R                  
6HR MIN TEMP:  47; 6HR MAX TEMP:  54;                                

DALLAS LOVE    FAIR      51  35  54 CALM      30.19R                  
6HR MIN TEMP:  49; 6HR MAX TEMP:  56;                                

FTW MEACHAM    FAIR      50  33  52 CALM      30.18R                  
6HR MIN TEMP:  48; 6HR MAX TEMP:  56;                                

DAL-EXECUTIVE    N/A     46  36  68 CALM      30.18R                  
6HR MIN TEMP:  46; 6HR MAX TEMP:  53;                                

FTW-ALLIANCE   FAIR      51  33  50 N5        30.18R                  
6HR MIN TEMP:  47; 6HR MAX TEMP:  57;                                

FTW-NAS-JRB    PTCLDY    53  35  50 N3        30.19R                  
6HR MIN TEMP:  49; 6HR MAX TEMP:  57;                                

FTW-SPINKS     CLEAR     50  34  53 CALM      30.20R                  
ARLINGTON      FAIR      50  36  58 NE5       30.19R                  
6HR MIN TEMP:  49; 6HR MAX TEMP:  55;                                

GRAND PRAIRIE  CLEAR     50  34  53 CALM      30.18S                  
ADDISON        CLEAR     50  34  53 N5        30.19R                  
MESQUITE       CLEAR     48  36  61 CALM      30.20R                  
LANCASTER      FAIR      48  35  60 CALM      30.20S                  
6HR MIN TEMP:  48; 6HR MAX TEMP:  55;                                

$$

TXZ091>094-102>105-117-120-121-131>134-200100-
NORTH CENTRAL TEXAS
  
CITY           SKY/WX    TMP DP  RH WIND       PRES   REMARKS
SHRMAN/DENISON FAIR      47  33  58 CALM      30.20R                  
6HR MIN TEMP:  46; 6HR MAX TEMP:  53;                                

GAINESVILLE    FAIR      45  32  61 N6        30.21R                  
6HR MIN TEMP:  45; 6HR MAX TEMP:  53;                                

BOWIE          FAIR      47  34  62 CALM      30.19R                  
6HR MIN TEMP:  47; 6HR MAX TEMP:  54;                                

BRIDGEPORT     FAIR      48  33  55 N3        30.20R                  
6HR MIN TEMP:  48; 6HR MAX TEMP:  56;                                

DECATUR        FAIR      49  33  53 CALM      30.19R                  
6HR MIN TEMP:  48; 6HR MAX TEMP:  56;                                

DENTON         FAIR      49  33  54 N5        30.19R                  
6HR MIN TEMP:  49; 6HR MAX TEMP:  56;                                

MCKINNEY       FAIR      50  33  52 N3        30.19R                  
6HR MIN TEMP:  47; 6HR MAX TEMP:  54;                                

BONHAM         FAIR      44  34  68 CALM      30.19S                  
6HR MIN TEMP:  44; 6HR MAX TEMP:  52;                                

GREENVILLE     FAIR      50  36  57 CALM      30.20R                  
ROCKWALL       FAIR      52  38  59 N3        30.19R                  
6HR MIN TEMP:  49; 6HR MAX TEMP:  56;                                

TERRELL        FAIR      49  35  58 CALM      30.20R                  
6HR MIN TEMP:  49; 6HR MAX TEMP:  55;                                

WAXAHACHIE     FAIR      48  36  62 CALM      30.20R                  
6HR MIN TEMP:  48; 6HR MAX TEMP:  55;                                

CLEBURNE       FAIR      50  34  53 N5        30.20R                  
GRANBURY       FAIR      51  35  53 W3        30.20R                  
6HR MIN TEMP:  47; 6HR MAX TEMP:  56;                                

$$

TXZ083>090-098>101-113>116-127>130-139>142-154-155-200100-
WESTERN NORTH TEXAS
  
CITY           SKY/WX    TMP DP  RH WIND       PRES   REMARKS
WICHITA FALLS  FAIR      47  36  65 CALM      30.20R                  
6HR MIN TEMP:  47; 6HR MAX TEMP:  57;                                

WF-KICKAPOO    FAIR      51  35  54 N7        30.22R                  
6HR MIN TEMP:  48; 6HR MAX TEMP:  56;                                

VERNON         FAIR      51  34  52 N5        30.21R                  
6HR MIN TEMP:  39; 6HR MAX TEMP:  73;                                

ABILENE        FAIR      53  38  56 NE5       30.19R                  
6HR MIN TEMP:  51; 6HR MAX TEMP:  59;                                

ABILENE-DYESS  CLEAR     51  35  55 NE7       30.18R                  
6HR MIN TEMP:  51; 6HR MAX TEMP:  57;                                

GRAHAM         FAIR      50  37  59 CALM      30.18R                  
6HR MIN TEMP:  49; 6HR MAX TEMP:  57;                                

BRECKENRIDGE   FAIR      54  34  46 CALM      30.19R                  
6HR MIN TEMP:  52; 6HR MAX TEMP:  58;                                

CISCO          FAIR      50  36  57 NE5       30.18R                  
EASTLAND       FAIR      45  34  66 CALM      30.19R                  
6HR MIN TEMP:  44; 6HR MAX TEMP:  57;                                

RANGER         FAIR      43  34  70 CALM      30.19R                  
MINERAL WELLS  FAIR      50  33  52 CALM      30.17R                  
6HR MIN TEMP:  50; 6HR MAX TEMP:  58;                                

STEPHENVILLE   FAIR      50  35  55 NE3       30.21R                  
6HR MIN TEMP:  47; 6HR MAX TEMP:  55;                                

COMANCHE       FAIR      51  38  60 E3        30.18R                  
6HR MIN TEMP:  48; 6HR MAX TEMP:  56;                                

BROWNWOOD      FAIR      54  39  58 CALM      30.18R                  
COLEMAN        FAIR      54  41  62 CALM      30.18R                  
6HR MIN TEMP:  50; 6HR MAX TEMP:  58;                                

BRADY          CLOUDY    52  39  62 N6        30.18R                  
$$

TXZ143>147-156>162-174-175-200100-
CENTRAL TEXAS
  
CITY           SKY/WX    TMP DP  RH WIND       PRES   REMARKS
WACO           FAIR      49  37  63 N5        30.19R                  
6HR MIN TEMP:  46; 6HR MAX TEMP:  54;                                

WACO-TSTC      CLEAR     50  39  66 N3        30.19R                  
WACO-MCGREGOR  FAIR      49  38  65 N3        30.19R                  
6HR MIN TEMP:  46; 6HR MAX TEMP:  52;                                

HILLSBORO      FAIR      48  37  63 NE3       30.19R                  
6HR MIN TEMP:  47; 6HR MAX TEMP:  54;                                

CORSICANA      FAIR      48  37  65 N5        30.20R                  
6HR MIN TEMP:  47; 6HR MAX TEMP:  56;                                

MEXIA          FAIR      48  38  67 CALM      30.18R                  
6HR MIN TEMP:  46; 6HR MAX TEMP:  51;                                

HEARNE         CLOUDY    48  40  74 CALM      30.19S                  
6HR MIN TEMP:  39; 6HR MAX TEMP:  49;                                

CAMERON        CLOUDY    49  39  69 N5        30.18S                  
6HR MIN TEMP:  47; 6HR MAX TEMP:  50;                                

TEMPLE         FAIR      48  38  68 CALM      30.19                   
6HR MIN TEMP:  47; 6HR MAX TEMP:  51;                                

KILLEEN        CLOUDY    50  38  63 CALM      30.17R                  
6HR MIN TEMP:  47; 6HR MAX TEMP:  51;                                

KILLEEN-SKYLRK FAIR      46  39  76 CALM      30.19R                  
6HR MIN TEMP:  46; 6HR MAX TEMP:  51;                                

FORT HOOD      MOCLDY    49  37  61 CALM      30.14R                  
6HR MIN TEMP:  48; 6HR MAX TEMP:  52;                                

GATESVILLE     FAIR      50  39  66 CALM      30.20R                  
HAMILTON       FAIR      51  38  63 NE3       30.19R                  
6HR MIN TEMP:  47; 6HR MAX TEMP:  56;                                

LAMPASAS       FAIR      47  39  74 CALM      30.17R                  
6HR MIN TEMP:  46; 6HR MAX TEMP:  51;                                

$$

TXZ095>097-106>112-122>126-135>138-148>153-164>167-200100-
EAST TEXAS
  
CITY           SKY/WX    TMP DP  RH WIND       PRES   REMARKS
PARIS          FAIR      45  34  65 CALM      30.20R                  
6HR MIN TEMP:  45; 6HR MAX TEMP:  52;                                

SULPHUR SPRNGS FAIR      48  37  65 N6        30.21R                  
6HR MIN TEMP:  47; 6HR MAX TEMP:  53;                                

MOUNT PLEASANT FAIR      47  36  64 CALM      30.20R                  
6HR MIN TEMP:  47; 6HR MAX TEMP:  53;                                

GILMER         FAIR      46  38  76 CALM      30.18R                  
6HR MIN TEMP:  46; 6HR MAX TEMP:  53;                                

MINEOLA        FAIR      43  39  87 CALM      30.19R                  
TYLER          FAIR      49  36  61 N5        30.18R                  
6HR MIN TEMP:  47; 6HR MAX TEMP:  56;                                

LONGVIEW       FAIR      46  44  93 CALM      30.17R                  
6HR MIN TEMP:  45; 6HR MAX TEMP:  52;                                

MARSHALL       FAIR      45  43  91 CALM      30.19R                  
6HR MIN TEMP:  45; 6HR MAX TEMP:  51;                                

ATHENS         FAIR      50  36  57 N5        30.17R                  
PALESTINE      FAIR      46  43  90 CALM      30.20R                  
JACKSONVILLE   FAIR      45  43  91 CALM      30.19R                  
HENDERSON      FAIR      44  42  94 MISG      30.19R                  
6HR MIN TEMP:  44; 6HR MAX TEMP:  49;                                

NACOGDOCHES      N/A     46  44  93 CALM      30.18R                  
6HR MIN TEMP:  45; 6HR MAX TEMP:  49;                                

LUFKIN         CLOUDY    47  44  90 NW5       30.17R                  
6HR MIN TEMP:  45; 6HR MAX TEMP:  50;                                

$$

SUPPLEMENTAL OBSERVATIONS (NWS FORT WORTH AREA)
  
CITY           SKY/WX    TMP DP  RH WIND       PRES   REMARKS
DENISON DAM      N/A     52  37  58 NW2         N/A